Location: Cheyres
(46.8153°N, 6.7877°E)
Time: 13:58:02
(UTC+00:00)

Cosmos 2278 Rocket - Pass Details

Date: 11 May 2021
Orbit: 841 x 845 km, 71.0° (Epoch: 19 June)

Event Time Altitude Azimuth Distance (km) Brightness Sun altitude
Exits shadow 20:17:11 - 184° (S) 3,235 4.9 -12.0°
Reaches altitude 10° 20:19:18 10° 179° (S) 2,452 4.2 -12.3°
Maximum altitude 20:24:37 44° 108° (ESE) 1,144 2.5 -12.9°
Drops below altitude 10° 20:29:57 10° 38° (NE) 2,468 4.7 -13.6°
Sets 20:32:30 0° 32° (NNE) 3,407 5.6 -13.9°
